Regional Weather Roundup
Issued by NWS Green Bay, WI

Home | Current Version | Previous Version | Text Only | Print | Product List | Glossary On
Versions: 1 2 3 4 5 6 7 8 9 10 11 12 13 14 15 16 17 18 19 20 21 22 23 24 25 26 27 28 29 30 31 32 33 34 35 36 37 38 39 40 41 42 43 44 45 46 47 48 49 50
000
ASUS43 KGRB 251259
RWRGRB

NORTH-CENTRAL AND NORTHEAST WISCONSIN REGIONAL WEATHER ROUNDUP
NATIONAL WEATHER SERVICE GREEN BAY WI
800 AM CDT FRI JUL 25 2014

WIZ005-009-010>012-018-019-251400-
NORTH CENTRAL WISCONSIN

CITY           SKY/WX    TMP DP  RH WIND       PRES   REMARKS
IRONWOOD       NOT AVBL
MANITOWISH WTR NOT AVBL
ARBOR VITAE    NOT AVBL
EAGLE RIVER    NOT AVBL
LAND O LAKES   NOT AVBL
RHINELANDER    CLOUDY    61  59  93 S7        29.97S
PHILLIPS       CLOUDY    63  59  86 S8        29.90F
ANTIGO         NOT AVBL
TOMAHAWK       LGT RAIN  60  58  93 CALM      29.95F
MERRILL        NOT AVBL
$$

WIZ013-073-251400-
NORTHEAST WISCONSIN

CITY           SKY/WX    TMP DP  RH WIND       PRES   REMARKS
IRON MOUNTAIN  PTSUNNY   64  56  75 S5        29.93F
MARINETTE      CLOUDY    63  52  67 SW8       29.96F
$$

WIZ017-030-035>037-045-251400-
CENTRAL WISCONSIN

CITY           SKY/WX    TMP DP  RH WIND       PRES   REMARKS
MEDFORD        NOT AVBL
WAUSAU         CLOUDY    62  59  90 SE6       29.95F
MOSINEE        CLOUDY    61  61 100 S8        29.97
MARSHFIELD     CLOUDY    63  58  83 S12       29.92F
WISC RAPIDS    CLOUDY    62  58  86 S8        29.98F
STEVENS POINT  NOT AVBL
WAUPACA        CLOUDY    64  60  86 S5        29.99F
SHAWANO        DRIZZLE   65  57  76 SW5       29.99S
CLINTONVILLE   CLOUDY    61  55  82 S8        29.97F
$$

WIZ038-039-048-051-251400-
FOX VALLEY

CITY           SKY/WX    TMP DP  RH WIND       PRES   REMARKS
NWS GREEN BAY  PTSUNNY   67  56  67 SW13      29.99F
APPLETON       PTSUNNY   63  55  77 SW10      30.01F
OSHKOSH        CLOUDY    63  54  72 SW10      30.00F
FOND DU LAC    LGT RAIN  62  53  72 SW3       30.02F
$$

WIZ022-050-052-251400-
EAST CENTRAL WISCONSIN

CITY           SKY/WX    TMP DP  RH WIND       PRES   REMARKS
STURGEON BAY   CLOUDY    64  54  68 SW10G17   29.99F
MANITOWOC      NOT AVBL
SHEBOYGAN      CLOUDY    64  53  67 SW8       30.02F
$$

LMZ563-521-522-541>543-251400-
LAKESHORE

STATION/POSITION TIME  TEMP    WIND        PRES    VSBY  WAVE
                       AIR SEA DIR/SP/G                  HT/PER
                 (UTC) (F)     (DEG/KT/KT) (MB)    (MI)  (FT/S)
SHEBOYGAN LKSHOR 1200   66     240/ 16/ 19 1017.2R
KEWAUNEE LKSHORE 1200   65     260/ 10/ 14 1016.6R
TWO RIVERS CG    1200   56                   N/A       6   1
NORTHPORT PIER   1200   66     210/  3/ 12 1014.9R
N MID LAKE BUOY  1200   58 54  200/ 10/ 12 1014.7R         1/ 3
STURGEON BAY CG  1200   51 48  180/  4     1015.5      6   1
CHAMBERS ISLAND  1200   65     200/  6/ 11 1015.6R
MENOMINEE LKSHOR 1200   64     220/  9/ 13 1015.7R
$$


USA.gov is the U.S. government's official web portal to all federal, state and local government web resources and services.